Year,Month,Day,Hour,Minute,Value (Times are PST for temperature in C)
2008,10,18,00,00,9.40
2008,10,18,00,01,9.40
2008,10,18,00,02,9.40
2008,10,18,00,03,9.30
2008,10,18,00,04,9.30
2008,10,18,00,05,9.30
2008,10,18,00,06,9.30
2008,10,18,00,07,9.30
2008,10,18,00,08,9.40
2008,10,18,00,09,9.40
2008,10,18,00,10,9.40
2008,10,18,00,11,9.40
2008,10,18,00,12,9.30
2008,10,18,00,13,9.30
2008,10,18,00,14,9.30
2008,10,18,00,15,9.30
2008,10,18,00,16,9.30
2008,10,18,00,17,9.30
2008,10,18,00,18,9.30
2008,10,18,00,19,9.30
2008,10,18,00,20,9.30
2008,10,18,00,21,9.30
2008,10,18,00,22,9.30
2008,10,18,00,23,9.30
2008,10,18,00,24,9.30
2008,10,18,00,25,9.30
2008,10,18,00,26,9.30
2008,10,18,00,27,9.20
2008,10,18,00,28,9.20
2008,10,18,00,29,9.20
2008,10,18,00,30,9.20
2008,10,18,00,31,9.20
2008,10,18,00,32,9.20
2008,10,18,00,33,9.10
2008,10,18,00,34,9.10
2008,10,18,00,35,9.10
2008,10,18,00,36,9.10
2008,10,18,00,37,9.10
2008,10,18,00,38,9.10
2008,10,18,00,39,9.10
2008,10,18,00,40,9.10
2008,10,18,00,41,9.10
2008,10,18,00,42,9.10
2008,10,18,00,43,9.10
2008,10,18,00,44,9.10
2008,10,18,00,45,9.10
2008,10,18,00,46,9.10
2008,10,18,00,47,9.10
2008,10,18,00,48,9.10
2008,10,18,00,49,9.10
2008,10,18,00,50,9.10
2008,10,18,00,51,9.00
2008,10,18,00,52,9.00
2008,10,18,00,53,9.00
2008,10,18,00,54,9.00
2008,10,18,00,55,8.90
2008,10,18,00,56,8.90
2008,10,18,00,57,8.90
2008,10,18,00,58,8.90
2008,10,18,00,59,8.90
2008,10,18,01,00,8.90
2008,10,18,01,01,8.90
2008,10,18,01,02,8.90
2008,10,18,01,03,8.90
2008,10,18,01,04,8.90
2008,10,18,01,05,8.90
2008,10,18,01,06,8.90
2008,10,18,01,07,8.90
2008,10,18,01,08,8.90
2008,10,18,01,09,8.90
2008,10,18,01,10,8.90
2008,10,18,01,11,8.90
2008,10,18,01,12,8.90
2008,10,18,01,13,8.90
2008,10,18,01,14,8.90
2008,10,18,01,15,8.90
2008,10,18,01,16,8.90
2008,10,18,01,17,8.90
2008,10,18,01,18,8.90
2008,10,18,01,19,8.90
2008,10,18,01,20,8.80
2008,10,18,01,21,8.80
2008,10,18,01,22,8.80
2008,10,18,01,23,8.80
2008,10,18,01,24,8.80
2008,10,18,01,25,8.80
2008,10,18,01,26,8.80
2008,10,18,01,27,8.80
2008,10,18,01,28,8.80
2008,10,18,01,29,8.80
2008,10,18,01,30,8.80
2008,10,18,01,31,8.80
2008,10,18,01,32,8.80
2008,10,18,01,33,8.80
2008,10,18,01,34,8.80
2008,10,18,01,35,8.80
2008,10,18,01,36,8.80
2008,10,18,01,37,8.80
2008,10,18,01,38,8.80
2008,10,18,01,39,8.90
2008,10,18,01,40,8.90
2008,10,18,01,41,8.90
2008,10,18,01,42,8.90
2008,10,18,01,43,8.90
2008,10,18,01,44,8.90
2008,10,18,01,45,8.80
2008,10,18,01,46,8.80
2008,10,18,01,47,8.80
2008,10,18,01,48,8.70
2008,10,18,01,49,8.70
2008,10,18,01,50,8.60
2008,10,18,01,51,8.60
2008,10,18,01,52,8.50
2008,10,18,01,53,8.50
2008,10,18,01,54,8.40
2008,10,18,01,55,8.40
2008,10,18,01,56,8.30
2008,10,18,01,57,8.20
2008,10,18,01,58,8.20
2008,10,18,01,59,8.10
2008,10,18,02,00,8.10
2008,10,18,02,01,8.10
2008,10,18,02,02,8.10
2008,10,18,02,03,8.10
2008,10,18,02,04,8.20
2008,10,18,02,05,8.20
2008,10,18,02,06,8.30
2008,10,18,02,07,8.30
2008,10,18,02,08,8.30
2008,10,18,02,09,8.20
2008,10,18,02,10,8.20
2008,10,18,02,11,8.20
2008,10,18,02,12,8.10
2008,10,18,02,13,8.00
2008,10,18,02,14,7.90
2008,10,18,02,15,7.80
2008,10,18,02,16,7.80
2008,10,18,02,17,7.70
2008,10,18,02,18,7.70
2008,10,18,02,19,7.70
2008,10,18,02,20,7.70
2008,10,18,02,21,7.70
2008,10,18,02,22,7.70
2008,10,18,02,23,7.80
2008,10,18,02,24,7.90
2008,10,18,02,25,7.90
2008,10,18,02,26,8.00
2008,10,18,02,27,8.00
2008,10,18,02,28,8.00
2008,10,18,02,29,7.90
2008,10,18,02,30,7.90
2008,10,18,02,31,7.80
2008,10,18,02,32,7.60
2008,10,18,02,33,7.50
2008,10,18,02,34,7.40
2008,10,18,02,35,7.30
2008,10,18,02,36,7.20
2008,10,18,02,37,7.20
2008,10,18,02,38,7.20
2008,10,18,02,39,7.10
2008,10,18,02,40,7.10
2008,10,18,02,41,7.10
2008,10,18,02,42,7.10
2008,10,18,02,43,7.20
2008,10,18,02,44,7.20
2008,10,18,02,45,7.30
2008,10,18,02,46,7.30
2008,10,18,02,47,7.40
2008,10,18,02,48,7.40
2008,10,18,02,49,7.40
2008,10,18,02,50,7.50
2008,10,18,02,51,7.50
2008,10,18,02,52,7.40
2008,10,18,02,53,7.40
2008,10,18,02,54,7.40
2008,10,18,02,55,7.30
2008,10,18,02,56,7.30
2008,10,18,02,57,7.20
2008,10,18,02,58,7.10
2008,10,18,02,59,7.00
2008,10,18,03,00,6.90
2008,10,18,03,01,6.80
2008,10,18,03,02,6.80
2008,10,18,03,03,6.80
2008,10,18,03,04,6.80
2008,10,18,03,05,6.80
2008,10,18,03,06,6.90
2008,10,18,03,07,7.10
2008,10,18,03,08,7.20
2008,10,18,03,09,7.20
2008,10,18,03,10,7.20
2008,10,18,03,11,7.20
2008,10,18,03,12,7.20
2008,10,18,03,13,7.20
2008,10,18,03,14,7.20
2008,10,18,03,15,7.20
2008,10,18,03,16,7.20
2008,10,18,03,17,7.20
2008,10,18,03,18,7.20
2008,10,18,03,19,7.10
2008,10,18,03,20,7.10
2008,10,18,03,21,7.00
2008,10,18,03,22,7.00
2008,10,18,03,23,7.10
2008,10,18,03,24,7.20
2008,10,18,03,25,7.20
2008,10,18,03,26,7.30
2008,10,18,03,27,7.30
2008,10,18,03,28,7.30
2008,10,18,03,29,7.30
2008,10,18,03,30,7.30
2008,10,18,03,31,7.40
2008,10,18,03,32,7.40
2008,10,18,03,33,7.40
2008,10,18,03,34,7.40
2008,10,18,03,35,7.40
2008,10,18,03,36,7.40
2008,10,18,03,37,7.40
2008,10,18,03,38,7.40
2008,10,18,03,39,7.30
2008,10,18,03,40,7.20
2008,10,18,03,41,7.10
2008,10,18,03,42,6.90
2008,10,18,03,43,6.80
2008,10,18,03,44,6.80
2008,10,18,03,45,6.80
2008,10,18,03,46,6.80
2008,10,18,03,47,6.90
2008,10,18,03,48,7.00
2008,10,18,03,49,7.10
2008,10,18,03,50,7.10
2008,10,18,03,51,7.20
2008,10,18,03,52,7.20
2008,10,18,03,53,7.20
2008,10,18,03,54,7.10
2008,10,18,03,55,7.10
2008,10,18,03,56,7.00
2008,10,18,03,57,6.80
2008,10,18,03,58,6.70
2008,10,18,03,59,6.50
2008,10,18,04,00,6.40
2008,10,18,04,01,6.30
2008,10,18,04,02,6.30
2008,10,18,04,03,6.30
2008,10,18,04,04,6.30
2008,10,18,04,05,6.20
2008,10,18,04,06,6.20
2008,10,18,04,07,6.10
2008,10,18,04,08,6.10
2008,10,18,04,09,6.00
2008,10,18,04,10,5.90
2008,10,18,04,11,5.80
2008,10,18,04,12,5.80
2008,10,18,04,13,5.70
2008,10,18,04,14,5.70
2008,10,18,04,15,5.70
2008,10,18,04,16,5.60
2008,10,18,04,17,5.70
2008,10,18,04,18,5.70
2008,10,18,04,19,5.70
2008,10,18,04,20,5.70
2008,10,18,04,21,5.70
2008,10,18,04,22,5.70
2008,10,18,04,23,5.60
2008,10,18,04,24,5.60
2008,10,18,04,25,5.50
2008,10,18,04,26,5.50
2008,10,18,04,27,5.50
2008,10,18,04,28,5.40
2008,10,18,04,29,5.40
2008,10,18,04,30,5.40
2008,10,18,04,31,5.30
2008,10,18,04,32,5.30
2008,10,18,04,33,5.30
2008,10,18,04,34,5.30
2008,10,18,04,35,5.30
2008,10,18,04,36,5.30
2008,10,18,04,37,5.30
2008,10,18,04,38,5.40
2008,10,18,04,39,5.30
2008,10,18,04,40,5.30
2008,10,18,04,41,5.30
2008,10,18,04,42,5.30
2008,10,18,04,43,5.30
2008,10,18,04,44,5.20
2008,10,18,04,45,5.20
2008,10,18,04,46,5.20
2008,10,18,04,47,5.10
2008,10,18,04,48,5.10
2008,10,18,04,49,5.10
2008,10,18,04,50,5.00
2008,10,18,04,51,5.00
2008,10,18,04,52,5.00
2008,10,18,04,53,5.00
2008,10,18,04,54,5.00
2008,10,18,04,55,5.00
2008,10,18,04,56,5.00
2008,10,18,04,57,4.90
2008,10,18,04,58,4.90
2008,10,18,04,59,4.90
2008,10,18,05,00,4.90
2008,10,18,05,01,4.80
2008,10,18,05,02,4.80
2008,10,18,05,03,4.80
2008,10,18,05,04,4.80
2008,10,18,05,05,4.80
2008,10,18,05,06,4.80
2008,10,18,05,07,4.70
2008,10,18,05,08,4.70
2008,10,18,05,09,4.70
2008,10,18,05,10,4.70
2008,10,18,05,11,4.70
2008,10,18,05,12,4.70
2008,10,18,05,13,4.80
2008,10,18,05,14,4.90
2008,10,18,05,15,5.00
2008,10,18,05,16,5.10
2008,10,18,05,17,5.10
2008,10,18,05,18,5.20
2008,10,18,05,19,5.30
2008,10,18,05,20,5.40
2008,10,18,05,21,5.40
2008,10,18,05,22,5.40
2008,10,18,05,23,5.40
2008,10,18,05,24,5.40
2008,10,18,05,25,5.40
2008,10,18,05,26,5.30
2008,10,18,05,27,5.30
2008,10,18,05,28,5.30
2008,10,18,05,29,5.20
2008,10,18,05,30,5.20
2008,10,18,05,31,5.10
2008,10,18,05,32,5.10
2008,10,18,05,33,5.10
2008,10,18,05,34,5.00
2008,10,18,05,35,4.90
2008,10,18,05,36,4.90
2008,10,18,05,37,4.80
2008,10,18,05,38,4.80
2008,10,18,05,39,4.80
2008,10,18,05,40,4.80
2008,10,18,05,41,4.80
2008,10,18,05,42,4.70
2008,10,18,05,43,4.70
2008,10,18,05,44,4.70
2008,10,18,05,45,4.70
2008,10,18,05,46,4.60
2008,10,18,05,47,4.60
2008,10,18,05,48,4.60
2008,10,18,05,49,4.60
2008,10,18,05,50,4.50
2008,10,18,05,51,4.50
2008,10,18,05,52,4.50
2008,10,18,05,53,4.50
2008,10,18,05,54,4.50
2008,10,18,05,55,4.50
2008,10,18,05,56,4.50
2008,10,18,05,57,4.60
2008,10,18,05,58,4.60
2008,10,18,05,59,4.60
2008,10,18,06,00,4.60
2008,10,18,06,01,4.60
2008,10,18,06,02,4.60
2008,10,18,06,03,4.60
2008,10,18,06,04,4.70
2008,10,18,06,05,4.70
2008,10,18,06,06,4.70
2008,10,18,06,07,4.70
2008,10,18,06,08,4.60
2008,10,18,06,09,4.60
2008,10,18,06,10,4.60
2008,10,18,06,11,4.50
2008,10,18,06,12,4.50
2008,10,18,06,13,4.50
2008,10,18,06,14,4.50
2008,10,18,06,15,4.60
2008,10,18,06,16,4.70
2008,10,18,06,17,4.80
2008,10,18,06,18,4.80
2008,10,18,06,19,4.90
2008,10,18,06,20,4.90
2008,10,18,06,21,4.90
2008,10,18,06,22,4.90
2008,10,18,06,23,4.80
2008,10,18,06,24,4.80
2008,10,18,06,25,4.80
2008,10,18,06,26,4.70
2008,10,18,06,27,4.70
2008,10,18,06,28,4.70
2008,10,18,06,29,4.60
2008,10,18,06,30,4.60
2008,10,18,06,31,4.60
2008,10,18,06,32,4.60
2008,10,18,06,33,4.60
2008,10,18,06,34,4.50
2008,10,18,06,35,4.50
2008,10,18,06,36,4.50
2008,10,18,06,37,4.40
2008,10,18,06,38,4.40
2008,10,18,06,39,4.30
2008,10,18,06,40,4.30
2008,10,18,06,41,4.30
2008,10,18,06,42,4.30
2008,10,18,06,43,4.30
2008,10,18,06,44,4.30
2008,10,18,06,45,4.30
2008,10,18,06,46,4.40
2008,10,18,06,47,4.40
2008,10,18,06,48,4.40
2008,10,18,06,49,4.50
2008,10,18,06,50,4.50
2008,10,18,06,51,4.50
2008,10,18,06,52,4.40
2008,10,18,06,53,4.40
2008,10,18,06,54,4.40
2008,10,18,06,55,4.30
2008,10,18,06,56,4.30
2008,10,18,06,57,4.30
2008,10,18,06,58,4.30
2008,10,18,06,59,4.30
2008,10,18,07,00,4.30
2008,10,18,07,01,4.30
2008,10,18,07,02,4.20
2008,10,18,07,03,4.20
2008,10,18,07,04,4.30
2008,10,18,07,05,4.20
2008,10,18,07,06,4.20
2008,10,18,07,07,4.20
2008,10,18,07,08,4.20
2008,10,18,07,09,4.20
2008,10,18,07,10,4.20
2008,10,18,07,11,4.20
2008,10,18,07,12,4.20
2008,10,18,07,13,4.20
2008,10,18,07,14,4.10
2008,10,18,07,15,4.10
2008,10,18,07,16,4.00
2008,10,18,07,17,3.90
2008,10,18,07,18,3.80
2008,10,18,07,19,3.70
2008,10,18,07,20,3.50
2008,10,18,07,21,3.40
2008,10,18,07,22,3.40
2008,10,18,07,23,3.30
2008,10,18,07,24,3.30
2008,10,18,07,25,3.20
2008,10,18,07,26,3.20
2008,10,18,07,27,3.10
2008,10,18,07,28,3.10
2008,10,18,07,29,3.10
2008,10,18,07,30,3.10
2008,10,18,07,31,3.00
2008,10,18,07,32,3.00
2008,10,18,07,33,2.90
2008,10,18,07,34,2.90
2008,10,18,07,35,2.90
2008,10,18,07,36,2.90
2008,10,18,07,37,2.90
2008,10,18,07,38,2.80
2008,10,18,07,39,2.80
2008,10,18,07,40,2.90
2008,10,18,07,41,2.90
2008,10,18,07,42,2.90
2008,10,18,07,43,2.90
2008,10,18,07,44,2.90
2008,10,18,07,45,2.90
2008,10,18,07,46,3.00
2008,10,18,07,47,3.00
2008,10,18,07,48,3.00
2008,10,18,07,49,3.00
2008,10,18,07,50,3.00
2008,10,18,07,51,3.00
2008,10,18,07,52,3.00
2008,10,18,07,53,3.00
2008,10,18,07,54,3.00
2008,10,18,07,55,3.10
2008,10,18,07,56,3.10
2008,10,18,07,57,3.00
2008,10,18,07,58,3.10
2008,10,18,07,59,3.10
2008,10,18,08,00,3.00
2008,10,18,08,01,3.10
2008,10,18,08,02,3.10
2008,10,18,08,03,3.10
2008,10,18,08,04,3.10
2008,10,18,08,05,3.20
2008,10,18,08,06,3.20
2008,10,18,08,07,3.20
2008,10,18,08,08,3.20
2008,10,18,08,09,3.20
2008,10,18,08,10,3.20
2008,10,18,08,11,3.20
2008,10,18,08,12,3.10
2008,10,18,08,13,3.00
2008,10,18,08,14,2.90
2008,10,18,08,15,2.90
2008,10,18,08,16,2.80
2008,10,18,08,17,2.80
2008,10,18,08,18,2.80
2008,10,18,08,19,2.90
2008,10,18,08,20,2.90
2008,10,18,08,21,2.90
2008,10,18,08,22,2.90
2008,10,18,08,23,2.90
2008,10,18,08,24,2.90
2008,10,18,08,25,2.90
2008,10,18,08,26,2.90
2008,10,18,08,27,2.90
2008,10,18,08,28,2.90
2008,10,18,08,29,2.90
2008,10,18,08,30,2.90
2008,10,18,08,31,2.90
2008,10,18,08,32,2.90
2008,10,18,08,33,3.00
2008,10,18,08,34,3.00
2008,10,18,08,35,3.00
2008,10,18,08,36,3.00
2008,10,18,08,37,3.10
2008,10,18,08,38,3.20
2008,10,18,08,39,3.30
2008,10,18,08,40,3.40
2008,10,18,08,41,3.50
2008,10,18,08,42,3.50
2008,10,18,08,43,3.60
2008,10,18,08,44,3.60
2008,10,18,08,45,3.60
2008,10,18,08,46,3.70
2008,10,18,08,47,3.70
2008,10,18,08,48,3.70
2008,10,18,08,49,3.70
2008,10,18,08,50,3.70
2008,10,18,08,51,3.80
2008,10,18,08,52,3.80
2008,10,18,08,53,3.80
2008,10,18,08,54,3.90
2008,10,18,08,55,4.00
2008,10,18,08,56,4.10
2008,10,18,08,57,4.10
2008,10,18,08,58,4.20
2008,10,18,08,59,4.30
2008,10,18,09,00,4.40
2008,10,18,09,01,4.50
2008,10,18,09,02,4.60
2008,10,18,09,03,4.70
2008,10,18,09,04,4.80
2008,10,18,09,05,4.90
2008,10,18,09,06,4.90
2008,10,18,09,07,5.00
2008,10,18,09,08,5.10
2008,10,18,09,09,5.20
2008,10,18,09,10,5.30
2008,10,18,09,11,5.40
2008,10,18,09,12,5.40
2008,10,18,09,13,5.50
2008,10,18,09,14,5.60
2008,10,18,09,15,5.70
2008,10,18,09,16,5.80
2008,10,18,09,17,5.90
2008,10,18,09,18,5.90
2008,10,18,09,19,6.00
2008,10,18,09,20,6.00
2008,10,18,09,21,6.10
2008,10,18,09,22,6.10
2008,10,18,09,23,6.20
2008,10,18,09,24,6.30
2008,10,18,09,25,6.40
2008,10,18,09,26,6.50
2008,10,18,09,27,6.60
2008,10,18,09,28,6.70
2008,10,18,09,29,6.80
2008,10,18,09,30,6.90
2008,10,18,09,31,6.90
2008,10,18,09,32,7.00
2008,10,18,09,33,7.00
2008,10,18,09,34,7.00
2008,10,18,09,35,7.00
2008,10,18,09,36,7.00
2008,10,18,09,37,7.00
2008,10,18,09,38,7.00
2008,10,18,09,39,7.00
2008,10,18,09,40,7.10
2008,10,18,09,41,7.10
2008,10,18,09,42,7.20
2008,10,18,09,43,7.20
2008,10,18,09,44,7.20
2008,10,18,09,45,7.20
2008,10,18,09,46,7.30
2008,10,18,09,47,7.30
2008,10,18,09,48,7.40
2008,10,18,09,49,7.40
2008,10,18,09,50,7.50
2008,10,18,09,51,7.50
2008,10,18,09,52,7.60
2008,10,18,09,53,7.70
2008,10,18,09,54,7.70
2008,10,18,09,55,7.80
2008,10,18,09,56,7.80
2008,10,18,09,57,7.90
2008,10,18,09,58,8.00
2008,10,18,09,59,8.00
2008,10,18,10,00,8.10
2008,10,18,10,01,8.20
2008,10,18,10,02,8.20
2008,10,18,10,03,8.30
2008,10,18,10,04,8.40
2008,10,18,10,05,8.40
2008,10,18,10,06,8.50
2008,10,18,10,07,8.60
2008,10,18,10,08,8.60
2008,10,18,10,09,8.70
2008,10,18,10,10,8.70
2008,10,18,10,11,8.80
2008,10,18,10,12,8.80
2008,10,18,10,13,8.90
2008,10,18,10,14,9.00
2008,10,18,10,15,9.00
2008,10,18,10,16,9.10
2008,10,18,10,17,9.20
2008,10,18,10,18,9.30
2008,10,18,10,19,9.40
2008,10,18,10,20,9.50
2008,10,18,10,21,9.60
2008,10,18,10,22,9.60
2008,10,18,10,23,9.60
2008,10,18,10,24,9.70
2008,10,18,10,25,9.70
2008,10,18,10,26,9.80
2008,10,18,10,27,9.80
2008,10,18,10,28,9.80
2008,10,18,10,29,9.80
2008,10,18,10,30,9.90
2008,10,18,10,31,9.90
2008,10,18,10,32,10.00
2008,10,18,10,33,10.10
2008,10,18,10,34,10.20
2008,10,18,10,35,10.30
2008,10,18,10,36,10.40
2008,10,18,10,37,10.40
2008,10,18,10,38,10.50
2008,10,18,10,39,10.60
2008,10,18,10,40,10.70
2008,10,18,10,41,10.80
2008,10,18,10,42,10.80
2008,10,18,10,43,10.80
2008,10,18,10,44,10.90
2008,10,18,10,45,11.00
2008,10,18,10,46,11.00
2008,10,18,10,47,11.10
2008,10,18,10,48,11.10
2008,10,18,10,49,11.10
2008,10,18,10,50,11.10
2008,10,18,10,51,11.20
2008,10,18,10,52,11.20
2008,10,18,10,53,11.30
2008,10,18,10,54,11.30
2008,10,18,10,55,11.30
2008,10,18,10,56,11.40
2008,10,18,10,57,11.30
2008,10,18,10,58,11.30
2008,10,18,10,59,11.30
2008,10,18,11,00,11.20
2008,10,18,11,01,11.20
2008,10,18,11,02,11.20
2008,10,18,11,03,11.30
2008,10,18,11,04,11.40
2008,10,18,11,05,11.40
2008,10,18,11,06,11.50
2008,10,18,11,07,11.60
2008,10,18,11,08,11.60
2008,10,18,11,09,11.70
2008,10,18,11,10,11.70
2008,10,18,11,11,11.70
2008,10,18,11,12,11.80
2008,10,18,11,13,11.80
2008,10,18,11,14,11.80
2008,10,18,11,15,11.70
2008,10,18,11,16,11.70
2008,10,18,11,17,11.70
2008,10,18,11,18,11.70
2008,10,18,11,19,11.70
2008,10,18,11,20,11.70
2008,10,18,11,21,11.60
2008,10,18,11,22,11.60
2008,10,18,11,23,11.70
2008,10,18,11,24,11.70
2008,10,18,11,25,11.70
2008,10,18,11,26,11.80
2008,10,18,11,27,11.80
2008,10,18,11,28,11.80
2008,10,18,11,29,11.90
2008,10,18,11,30,11.80
2008,10,18,11,31,11.80
2008,10,18,11,32,11.80
2008,10,18,11,33,11.80
2008,10,18,11,34,11.80
2008,10,18,11,35,11.80
2008,10,18,11,36,11.90
2008,10,18,11,37,11.90
2008,10,18,11,38,12.00
2008,10,18,11,39,12.00
2008,10,18,11,40,12.10
2008,10,18,11,41,12.20
2008,10,18,11,42,12.30
2008,10,18,11,43,12.30
2008,10,18,11,44,12.30
2008,10,18,11,45,12.30
2008,10,18,11,46,12.30
2008,10,18,11,47,12.30
2008,10,18,11,48,12.30
2008,10,18,11,49,12.40
2008,10,18,11,50,12.40
2008,10,18,11,51,12.40
2008,10,18,11,52,12.40
2008,10,18,11,53,12.40
2008,10,18,11,54,12.40
2008,10,18,11,55,12.50
2008,10,18,11,56,12.50
2008,10,18,11,57,12.40
2008,10,18,11,58,12.30
2008,10,18,11,59,12.30
2008,10,18,12,00,12.30
2008,10,18,12,01,12.30
2008,10,18,12,02,12.20
2008,10,18,12,03,12.20
2008,10,18,12,04,12.20
2008,10,18,12,05,12.00
2008,10,18,12,06,11.90
2008,10,18,12,07,11.90
2008,10,18,12,08,11.90
2008,10,18,12,09,11.90
2008,10,18,12,10,11.90
2008,10,18,12,11,11.80
2008,10,18,12,12,11.80
2008,10,18,12,13,11.70
2008,10,18,12,14,11.70
2008,10,18,12,15,11.80
2008,10,18,12,16,11.80
2008,10,18,12,17,11.80
2008,10,18,12,18,11.90
2008,10,18,12,19,11.90
2008,10,18,12,20,11.90
2008,10,18,12,21,11.90
2008,10,18,12,22,12.00
2008,10,18,12,23,12.00
2008,10,18,12,24,11.90
2008,10,18,12,25,11.90
2008,10,18,12,26,11.90
2008,10,18,12,27,11.90
2008,10,18,12,28,11.90
2008,10,18,12,29,11.90
2008,10,18,12,30,12.00
2008,10,18,12,31,12.10
2008,10,18,12,32,12.10
2008,10,18,12,33,12.10
2008,10,18,12,34,12.10
2008,10,18,12,35,12.00
2008,10,18,12,36,11.90
2008,10,18,12,37,11.80
2008,10,18,12,38,11.80
2008,10,18,12,39,11.90
2008,10,18,12,40,12.00
2008,10,18,12,41,12.10
2008,10,18,12,42,12.00
2008,10,18,12,43,12.00
2008,10,18,12,44,12.00
2008,10,18,12,45,12.10
2008,10,18,12,46,12.10
2008,10,18,12,47,12.00
2008,10,18,12,48,12.00
2008,10,18,12,49,12.10
2008,10,18,12,50,12.10
2008,10,18,12,51,12.10
2008,10,18,12,52,12.20
2008,10,18,12,53,12.20
2008,10,18,12,54,12.30
2008,10,18,12,55,12.30
2008,10,18,12,56,12.30
2008,10,18,12,57,12.20
2008,10,18,12,58,12.10
2008,10,18,12,59,12.10
2008,10,18,13,00,12.10
2008,10,18,13,01,12.00
2008,10,18,13,02,12.00
2008,10,18,13,03,12.00
2008,10,18,13,04,12.00
2008,10,18,13,05,11.90
2008,10,18,13,06,11.90
2008,10,18,13,07,11.90
2008,10,18,13,08,11.90
2008,10,18,13,09,11.90
2008,10,18,13,10,12.00
2008,10,18,13,11,12.10
2008,10,18,13,12,12.00
2008,10,18,13,13,11.90
2008,10,18,13,14,11.90
2008,10,18,13,15,12.00
2008,10,18,13,16,12.10
2008,10,18,13,17,12.10
2008,10,18,13,18,12.20
2008,10,18,13,19,12.20
2008,10,18,13,20,12.10
2008,10,18,13,21,12.10
2008,10,18,13,22,12.20
2008,10,18,13,23,12.10
2008,10,18,13,24,12.10
2008,10,18,13,25,12.00
2008,10,18,13,26,12.00
2008,10,18,13,27,11.90
2008,10,18,13,28,11.90
2008,10,18,13,29,11.90
2008,10,18,13,30,11.90
2008,10,18,13,31,12.00
2008,10,18,13,32,12.10
2008,10,18,13,33,12.00
2008,10,18,13,34,12.00
2008,10,18,13,35,12.00
2008,10,18,13,36,12.00
2008,10,18,13,37,12.10
2008,10,18,13,38,12.10
2008,10,18,13,39,12.10
2008,10,18,13,40,12.10
2008,10,18,13,41,12.10
2008,10,18,13,42,12.20
2008,10,18,13,43,12.20
2008,10,18,13,44,12.20
2008,10,18,13,45,12.30
2008,10,18,13,46,12.20
2008,10,18,13,47,12.20
2008,10,18,13,48,12.20
2008,10,18,13,49,12.20
2008,10,18,13,50,12.20
2008,10,18,13,51,12.20
2008,10,18,13,52,12.20
2008,10,18,13,53,12.20
2008,10,18,13,54,12.10
2008,10,18,13,55,12.10
2008,10,18,13,56,12.10
2008,10,18,13,57,12.10
2008,10,18,13,58,12.10
2008,10,18,13,59,12.10
2008,10,18,14,00,12.10
2008,10,18,14,01,12.00
2008,10,18,14,02,11.90
2008,10,18,14,03,12.00
2008,10,18,14,04,11.90
2008,10,18,14,05,11.90
2008,10,18,14,06,11.90
2008,10,18,14,07,11.80
2008,10,18,14,08,11.70
2008,10,18,14,09,11.70
2008,10,18,14,10,11.70
2008,10,18,14,11,11.70
2008,10,18,14,12,11.70
2008,10,18,14,13,11.70
2008,10,18,14,14,11.70
2008,10,18,14,15,11.60
2008,10,18,14,16,11.60
2008,10,18,14,17,11.70
2008,10,18,14,18,11.80
2008,10,18,14,19,11.80
2008,10,18,14,20,11.80
2008,10,18,14,21,11.80
2008,10,18,14,22,11.90
2008,10,18,14,23,12.00
2008,10,18,14,24,12.10
2008,10,18,14,25,12.10
2008,10,18,14,26,12.20
2008,10,18,14,27,12.20
2008,10,18,14,28,12.20
2008,10,18,14,29,12.20
2008,10,18,14,30,12.10
2008,10,18,14,31,12.00
2008,10,18,14,32,12.00
2008,10,18,14,33,12.00
2008,10,18,14,34,12.10
2008,10,18,14,35,12.10
2008,10,18,14,36,12.00
2008,10,18,14,37,12.00
2008,10,18,14,38,12.00
2008,10,18,14,39,12.10
2008,10,18,14,40,12.10
2008,10,18,14,41,12.10
2008,10,18,14,42,12.10
2008,10,18,14,43,12.00
2008,10,18,14,44,12.00
2008,10,18,14,45,12.00
2008,10,18,14,46,12.10
2008,10,18,14,47,12.10
2008,10,18,14,48,12.10
2008,10,18,14,49,12.10
2008,10,18,14,50,12.10
2008,10,18,14,51,12.10
2008,10,18,14,52,12.10
2008,10,18,14,53,12.10
2008,10,18,14,54,12.10
2008,10,18,14,55,12.10
2008,10,18,14,56,12.10
2008,10,18,14,57,12.10
2008,10,18,14,58,12.10
2008,10,18,14,59,12.20
2008,10,18,15,00,12.20
2008,10,18,15,01,12.20
2008,10,18,15,02,12.20
2008,10,18,15,03,12.20
2008,10,18,15,04,12.10
2008,10,18,15,05,12.10
2008,10,18,15,06,12.10
2008,10,18,15,07,12.10
2008,10,18,15,08,12.10
2008,10,18,15,09,12.10
2008,10,18,15,10,12.10
2008,10,18,15,11,12.20
2008,10,18,15,12,12.20
2008,10,18,15,13,12.20
2008,10,18,15,14,12.20
2008,10,18,15,15,12.20
2008,10,18,15,16,12.30
2008,10,18,15,17,12.20
2008,10,18,15,18,12.10
2008,10,18,15,19,12.10
2008,10,18,15,20,12.10
2008,10,18,15,21,12.10
2008,10,18,15,22,12.00
2008,10,18,15,23,12.00
2008,10,18,15,24,11.90
2008,10,18,15,25,11.90
2008,10,18,15,26,11.90
2008,10,18,15,27,11.80
2008,10,18,15,28,11.80
2008,10,18,15,29,11.80
2008,10,18,15,30,11.90
2008,10,18,15,31,11.90
2008,10,18,15,32,11.90
2008,10,18,15,33,12.00
2008,10,18,15,34,12.00
2008,10,18,15,35,12.10
2008,10,18,15,36,12.00
2008,10,18,15,37,12.00
2008,10,18,15,38,11.90
2008,10,18,15,39,11.90
2008,10,18,15,40,11.90
2008,10,18,15,41,11.90
2008,10,18,15,42,11.90
2008,10,18,15,43,11.90
2008,10,18,15,44,11.90
2008,10,18,15,45,11.90
2008,10,18,15,46,11.80
2008,10,18,15,47,11.80
2008,10,18,15,48,11.80
2008,10,18,15,49,11.80
2008,10,18,15,50,11.80
2008,10,18,15,51,11.80
2008,10,18,15,52,11.80
2008,10,18,15,53,11.90
2008,10,18,15,54,12.00
2008,10,18,15,55,12.10
2008,10,18,15,56,12.10
2008,10,18,15,57,12.10
2008,10,18,15,58,12.10
2008,10,18,15,59,12.10
2008,10,18,16,00,12.20
2008,10,18,16,01,12.20
2008,10,18,16,02,12.20
2008,10,18,16,03,12.20
2008,10,18,16,04,12.20
2008,10,18,16,05,12.20
2008,10,18,16,06,12.10
2008,10,18,16,07,12.10
2008,10,18,16,08,12.10
2008,10,18,16,09,12.00
2008,10,18,16,10,12.00
2008,10,18,16,11,12.00
2008,10,18,16,12,12.10
2008,10,18,16,13,12.10
2008,10,18,16,14,12.10
2008,10,18,16,15,12.20
2008,10,18,16,16,12.20
2008,10,18,16,17,12.10
2008,10,18,16,18,12.10
2008,10,18,16,19,12.00
2008,10,18,16,20,12.10
2008,10,18,16,21,12.10
2008,10,18,16,22,12.10
2008,10,18,16,23,12.10
2008,10,18,16,24,12.10
2008,10,18,16,25,12.10
2008,10,18,16,26,12.10
2008,10,18,16,27,12.20
2008,10,18,16,28,12.20
2008,10,18,16,29,12.20
2008,10,18,16,30,12.10
2008,10,18,16,31,12.10
2008,10,18,16,32,12.10
2008,10,18,16,33,12.10
2008,10,18,16,34,12.20
2008,10,18,16,35,12.20
2008,10,18,16,36,12.20
2008,10,18,16,37,12.30
2008,10,18,16,38,12.30
2008,10,18,16,39,12.40
2008,10,18,16,40,12.40
2008,10,18,16,41,12.50
2008,10,18,16,42,12.50
2008,10,18,16,43,12.40
2008,10,18,16,44,12.40
2008,10,18,16,45,12.50
2008,10,18,16,46,12.60
2008,10,18,16,47,12.60
2008,10,18,16,48,12.70
2008,10,18,16,49,12.80
2008,10,18,16,50,12.80
2008,10,18,16,51,12.80
2008,10,18,16,52,12.70
2008,10,18,16,53,12.70
2008,10,18,16,54,12.70
2008,10,18,16,55,12.70
2008,10,18,16,56,12.70
2008,10,18,16,57,12.70
2008,10,18,16,58,12.70
2008,10,18,16,59,12.70
2008,10,18,17,00,12.70
2008,10,18,17,01,12.70
2008,10,18,17,02,12.60
2008,10,18,17,03,12.60
2008,10,18,17,04,12.50
2008,10,18,17,05,12.50
2008,10,18,17,06,12.40
2008,10,18,17,07,12.40
2008,10,18,17,08,12.40
2008,10,18,17,09,12.40
2008,10,18,17,10,12.40
2008,10,18,17,11,12.30
2008,10,18,17,12,12.30
2008,10,18,17,13,12.30
2008,10,18,17,14,12.30
2008,10,18,17,15,12.30
2008,10,18,17,16,12.30
2008,10,18,17,17,12.40
2008,10,18,17,18,12.40
2008,10,18,17,19,12.50
2008,10,18,17,20,12.60
2008,10,18,17,21,12.70
2008,10,18,17,22,12.80
2008,10,18,17,23,12.90
2008,10,18,17,24,13.00
2008,10,18,17,25,13.10
2008,10,18,17,26,13.20
2008,10,18,17,27,13.20
2008,10,18,17,28,13.20
2008,10,18,17,29,13.30
2008,10,18,17,30,13.30
2008,10,18,17,31,13.20
2008,10,18,17,32,13.10
2008,10,18,17,33,13.00
2008,10,18,17,34,12.90
2008,10,18,17,35,12.80
2008,10,18,17,36,12.80
2008,10,18,17,37,12.70
2008,10,18,17,38,12.70
2008,10,18,17,39,12.70
2008,10,18,17,40,12.70
2008,10,18,17,41,12.50
2008,10,18,17,42,12.40
2008,10,18,17,43,12.40
2008,10,18,17,44,12.40
2008,10,18,17,45,12.30
2008,10,18,17,46,12.40